When you browse on this site, cookies collect data to enhance your experience and personalize the content and advertising you see.
Visit our Privacy Policy to learn more. By continuing to use the site, you agree to this use of cookies and data.

Hourly Weather Barcelona

Today, 22 September, Tuesday

Time Temperature Precipitation Wind Pressure Humidity
00:00 +27°C° 0.2 mm 1 mps 758 mmHg 90%
01:00 +26°C° 0.2 mm 1 mps 757 mmHg 91%
02:00 +26°C° 0 mm 1 mps 757 mmHg 91%
03:00 +26°C° 0 mm 1 mps 757 mmHg 92%
04:00 +26°C° 0 mm 1 mps 757 mmHg 92%
05:00 +25°C° 0 mm 1 mps 757 mmHg 93%
06:00 +26°C° 0 mm 1 mps 758 mmHg 90%
07:00 +27°C° 0 mm 1 mps 758 mmHg 87%
08:00 +28°C° 0 mm 1 mps 758 mmHg 84%
09:00 +30°C° 0 mm 2 mps 758 mmHg 78%
10:00 +32°C° 0 mm 2 mps 758 mmHg 72%
11:00 +34°C° 0 mm 2 mps 759 mmHg 65%
12:00 +35°C° 0.1 mm 2 mps 758 mmHg 63%
13:00 +36°C° 0.1 mm 3 mps 757 mmHg 61%
14:00 +36°C° 0.1 mm 3 mps 756 mmHg 59%
15:00 +35°C° 0.2 mm 3 mps 756 mmHg 65%
16:00 +34°C° 0.2 mm 3 mps 756 mmHg 72%
17:00 +33°C° 0.2 mm 3 mps 755 mmHg 78%
18:00 +31°C° 0 mm 3 mps 756 mmHg 82%
19:00 +29°C° 0 mm 2 mps 756 mmHg 85%
20:00 +28°C° 0 mm 2 mps 757 mmHg 88%
21:00 +28°C° 0 mm 2 mps 757 mmHg 88%
22:00 +28°C° 0 mm 3 mps 757 mmHg 88%
23:00 +27°C° 0 mm 3 mps 758 mmHg 88%

Tomorrow, 23 September, Wednesday

Time Temperature Precipitation Wind Pressure Humidity
00:00 +27°C° 0.3 mm 3 mps 757 mmHg 89%
01:00 +27°C° 0.3 mm 2 mps 757 mmHg 90%
02:00 +26°C° 0.3 mm 2 mps 757 mmHg 91%
03:00 +26°C° 0.1 mm 2 mps 757 mmHg 92%
04:00 +26°C° 0.1 mm 2 mps 757 mmHg 93%
05:00 +25°C° 0.1 mm 1 mps 757 mmHg 93%
06:00 +27°C° 0 mm 1 mps 758 mmHg 90%
07:00 +28°C° 0 mm 1 mps 758 mmHg 86%
08:00 +29°C° 0 mm 1 mps 759 mmHg 83%
09:00 +31°C° 0 mm 1 mps 759 mmHg 76%
10:00 +33°C° 0 mm 1 mps 759 mmHg 69%
11:00 +35°C° 0 mm 2 mps 759 mmHg 62%
12:00 +36°C° 0.1 mm 2 mps 758 mmHg 61%
13:00 +36°C° 0.1 mm 2 mps 757 mmHg 60%
14:00 +37°C° 0.1 mm 2 mps 757 mmHg 59%
15:00 +35°C° 0.6 mm 2 mps 756 mmHg 68%
16:00 +34°C° 0.6 mm 2 mps 756 mmHg 77%
17:00 +31°C° 0.6 mm 2 mps 756 mmHg 87%
18:00 +30°C° 0.1 mm 2 mps 757 mmHg 87%
19:00 +29°C° 0.1 mm 2 mps 757 mmHg 88%
20:00 +28°C° 0.1 mm 1 mps 758 mmHg 88%
21:00 +28°C° 0 mm 2 mps 758 mmHg 89%
22:00 +28°C° 0 mm 2 mps 758 mmHg 90%
23:00 +27°C° 0 mm 2 mps 759 mmHg 90%

Day after tomorrow, 24 September, Thursday

Time Temperature Precipitation Wind Pressure Humidity
00:00 +27°C° 0.1 mm 2 mps 758 mmHg 91%
01:00 +27°C° 0.1 mm 2 mps 758 mmHg 92%
02:00 +26°C° 0.1 mm 1 mps 757 mmHg 93%
03:00 +26°C° 0 mm 2 mps 758 mmHg 93%
04:00 +26°C° 0 mm 2 mps 758 mmHg 93%
05:00 +25°C° 0 mm 2 mps 758 mmHg 93%
06:00 +26°C° 0 mm 1 mps 758 mmHg 91%
07:00 +27°C° 0 mm 1 mps 759 mmHg 88%
08:00 +28°C° 0 mm 1 mps 759 mmHg 86%
09:00 +30°C° 0 mm 1 mps 759 mmHg 79%
10:00 +32°C° 0 mm 1 mps 759 mmHg 72%
11:00 +34°C° 0 mm 1 mps 759 mmHg 64%
12:00 +34°C° 0.2 mm 1 mps 759 mmHg 63%
13:00 +36°C° 0.2 mm 2 mps 758 mmHg 62%
14:00 +36°C° 0.2 mm 2 mps 758 mmHg 61%
15:00 +35°C° 0.4 mm 2 mps 757 mmHg 69%
16:00 +32°C° 0.4 mm 1 mps 757 mmHg 76%
17:00 +31°C° 0.4 mm 1 mps 757 mmHg 84%
18:00 +30°C° 0.1 mm 1 mps 757 mmHg 85%
19:00 +29°C° 0.1 mm 1 mps 758 mmHg 86%
20:00 +28°C° 0.1 mm 2 mps 758 mmHg 87%
21:00 +28°C° 0 mm 2 mps 759 mmHg 87%
22:00 +27°C° 0 mm 2 mps 759 mmHg 87%
23:00 +27°C° 0 mm 2 mps 759 mmHg 88%

25 September, Friday

Time Temperature Precipitation Wind Pressure Humidity
00:00 +27°C° 0 mm 2 mps 759 mmHg 88%
01:00 +26°C° 0 mm 2 mps 758 mmHg 89%
02:00 +26°C° 0 mm 2 mps 758 mmHg 90%
03:00 +26°C° 0 mm 2 mps 758 mmHg 90%
04:00 +25°C° 0 mm 2 mps 758 mmHg 91%
05:00 +25°C° 0 mm 2 mps 758 mmHg 91%
06:00 +26°C° 0 mm 2 mps 759 mmHg 89%
07:00 +27°C° 0 mm 1 mps 759 mmHg 86%
08:00 +28°C° 0 mm 1 mps 760 mmHg 84%
09:00 +30°C° 0 mm 1 mps 760 mmHg 77%
10:00 +31°C° 0 mm 1 mps 760 mmHg 70%
11:00 +33°C° 0 mm 1 mps 760 mmHg 63%
12:00 +35°C° 0 mm 2 mps 759 mmHg 62%
13:00 +35°C° 0 mm 2 mps 758 mmHg 61%
14:00 +35°C° 0 mm 2 mps 758 mmHg 60%
15:00 +34°C° 0.4 mm 2 mps 757 mmHg 68%
16:00 +33°C° 0.4 mm 3 mps 757 mmHg 75%
17:00 +30°C° 0.4 mm 3 mps 756 mmHg 82%
18:00 +29°C° 0.1 mm 3 mps 757 mmHg 84%
19:00 +29°C° 0.1 mm 3 mps 757 mmHg 86%
20:00 +28°C° 0.1 mm 3 mps 758 mmHg 88%
21:00 +27°C° 0 mm 3 mps 758 mmHg 89%
22:00 +27°C° 0 mm 3 mps 758 mmHg 91%
23:00 +27°C° 0 mm 3 mps 758 mmHg 92%

26 September, Saturday

Time Temperature Precipitation Wind Pressure Humidity
00:00 +26°C° 0 mm 2 mps 758 mmHg 92%
01:00 +26°C° 0 mm 2 mps 758 mmHg 93%
02:00 +26°C° 0 mm 2 mps 757 mmHg 93%
03:00 +25°C° 0 mm 2 mps 757 mmHg 94%
04:00 +25°C° 0 mm 2 mps 757 mmHg 94%
05:00 +25°C° 0 mm 2 mps 757 mmHg 95%
06:00 +26°C° 0 mm 1 mps 758 mmHg 91%
07:00 +27°C° 0 mm 1 mps 758 mmHg 88%
08:00 +27°C° 0 mm 0 mps 758 mmHg 84%
09:00 +30°C° 0 mm 1 mps 759 mmHg 78%
10:00 +32°C° 0 mm 1 mps 759 mmHg 71%
11:00 +33°C° 0 mm 1 mps 759 mmHg 65%
12:00 +34°C° 0.3 mm 2 mps 758 mmHg 66%
13:00 +34°C° 0.3 mm 2 mps 757 mmHg 68%
14:00 +34°C° 0.3 mm 2 mps 756 mmHg 69%
15:00 +33°C° 0.3 mm 3 mps 756 mmHg 73%
16:00 +31°C° 0.3 mm 3 mps 756 mmHg 76%
17:00 +31°C° 0.3 mm 3 mps 755 mmHg 79%
18:00 +30°C° 0.4 mm 4 mps 756 mmHg 81%
19:00 +29°C° 0.4 mm 4 mps 756 mmHg 83%
20:00 +28°C° 0.4 mm 4 mps 757 mmHg 85%
21:00 +28°C° 0.1 mm 4 mps 757 mmHg 87%
22:00 +27°C° 0.1 mm 4 mps 757 mmHg 89%
23:00 +27°C° 0.1 mm 3 mps 757 mmHg 91%

27 September, Sunday

Time Temperature Precipitation Wind Pressure Humidity
00:00 +26°C° 0 mm 3 mps 757 mmHg 92%
01:00 +26°C° 0 mm 3 mps 756 mmHg 92%
02:00 +26°C° 0 mm 2 mps 756 mmHg 93%
03:00 +26°C° 0 mm 3 mps 756 mmHg 93%
04:00 +26°C° 0 mm 3 mps 756 mmHg 94%
05:00 +25°C° 0 mm 3 mps 755 mmHg 94%
06:00 +26°C° 0 mm 2 mps 756 mmHg 91%
07:00 +27°C° 0 mm 2 mps 756 mmHg 88%
08:00 +29°C° 0 mm 1 mps 757 mmHg 85%
09:00 +30°C° 0 mm 1 mps 757 mmHg 78%
10:00 +32°C° 0 mm 1 mps 757 mmHg 71%
11:00 +34°C° 0 mm 1 mps 757 mmHg 64%
12:00 +33°C° 0.7 mm 1 mps 756 mmHg 69%
13:00 +32°C° 0.7 mm 2 mps 756 mmHg 75%
14:00 +32°C° 0.7 mm 2 mps 755 mmHg 80%
15:00 +31°C° 0.7 mm 2 mps 754 mmHg 83%
16:00 +30°C° 0.7 mm 2 mps 754 mmHg 85%
17:00 +30°C° 0.7 mm 2 mps 754 mmHg 87%
18:00 +29°C° 0.1 mm 2 mps 755 mmHg 88%
19:00 +28°C° 0.1 mm 3 mps 755 mmHg 89%
20:00 +28°C° 0.1 mm 3 mps 755 mmHg 89%
21:00 +27°C° 0.2 mm 3 mps 756 mmHg 91%
22:00 +27°C° 0.2 mm 3 mps 756 mmHg 92%
23:00 +27°C° 0.2 mm 2 mps 756 mmHg 93%
Show more